[[{"header":{"parameterUnit":"m.s-1","parameterCategory":1,"la1":30.2991,"la2":30.254,"lo1":-89.0895,"lo2":-89.0444,"dy":0.0017,"dx":0.0017,"nx":28,"ny":28,"refTime":"2024-08-26T03:00:00:Z","depth":0,"parameterNumber":2,"parameterNumberName":"U-component_of_WINDS"},"data":[0,0,0,0,0,0,0,0,0,0,0,0,0,0,0,0,0,0,0,0,0,0,0,0,0,0,0,0,0,0,0,0,0,0,0,0,0,0,0,0,0,0,0,0,0,0,0,0,0,0,0,0,0,0,0,0,0,0,-2.1791,-2.179,0,-2.1689,-2.1688,-2.1687,-2.1644,-2.1644,-2.1644,-2.1644,-2.1539,-2.1536,-2.1533,0,0,0,0,0,0,0,0,0,0,0,0,0,-2.195,-2.1947,-2.1791,-2.179,-2.1789,-2.1689,-2.1688,-2.1686,-2.1643,-2.1644,-2.1644,-2.1644,-2.154,-2.1536,-2.1533,0,0,0,0,0,0,0,0,0,0,0,0,0,-2.1868,-2.1946,-2.1791,-2.1755,-2.1751,-2.1689,-2.1688,-2.1686,-2.1643,-2.1644,-2.1644,-2.1644,-2.1541,-2.1537,-2.1532,-2.1499,0,0,-2.1519,-2.1517,0,0,0,0,0,0,0,0,-2.1872,-2.1862,-2.1762,-2.1758,-2.1753,-2.1679,-2.1705,-2.1623,-2.1643,-2.1684,-2.1644,-2.1644,-2.1585,-2.1577,-2.1557,-2.1494,-2.1489,-2.1518,-2.1515,-2.1514,-2.1512,0,0,0,0,0,0,0,-2.1878,-2.1866,-2.1751,-2.176,-2.1755,-2.1744,-2.1733,-2.1689,-2.1634,-2.1681,-2.1677,-2.1666,-2.1583,-2.1562,-2.1555,-2.1488,-2.1518,-2.1514,-2.1512,-2.151,-2.1394,-2.1393,0,0,0,0,0,0,-2.189,-2.1871,-2.1754,-2.1748,-2.1815,-2.1741,-2.1729,-2.1703,-2.1635,-2.1625,-2.1666,-2.1664,-2.1569,-2.156,-2.1551,-2.1508,-2.1514,-2.1509,-2.1507,-2.1394,-2.1394,-2.1393,0,0,0,0,0,0,-2.1893,-2.188,-2.1758,-2.1808,-2.1792,-2.1738,-2.1709,-2.17,-2.1679,-2.1623,-2.1613,-2.1654,-2.1569,-2.1557,-2.1512,-2.1504,-2.1507,-2.1503,-2.1395,-2.1394,-2.1393,-2.1422,0,0,0,0,0,0,-2.1898,-2.1881,-2.1868,-2.1808,-2.179,-2.1721,-2.1709,-2.1698,-2.1672,-2.1669,-2.161,-2.16,-2.1568,-2.1519,-2.1508,-2.1498,-2.15,-2.1395,-2.1394,-2.1394,-2.1421,-2.1422,-2.1423,0,0,0,0,0,-2.1904,-2.1879,-2.1867,-2.1853,-2.1771,-2.1721,-2.171,-2.1674,-2.1671,-2.1657,-2.1622,-2.1602,-2.1507,-2.1515,-2.1502,-2.149,-2.1396,-2.1395,-2.1394,-2.1421,-2.1422,-2.1423,0,0,0,0,0,0,-2.1937,-2.187,-2.1856,-2.1812,-2.1772,-2.1713,-2.1694,-2.1676,-2.1636,-2.1635,-2.1592,-2.1579,-2.1538,-2.151,-2.152,-2.1455,-2.145,-2.1446,-2.1475,-2.1475,-2.1476,-2.1483,-2.1496,0,0,0,0,0,-2.194,-2.1904,-2.1848,-2.1814,-2.1795,-2.1748,-2.1725,-2.1701,-2.1658,-2.1641,-2.1602,-2.1562,-2.1523,-2.1498,-2.1458,-2.1418,-2.1405,-2.1403,-2.1404,-2.1405,-2.1402,-2.138,-2.1379,-2.139,-2.139,-2.139,0,0,-2.1944,-2.1903,-2.1883,-2.1819,-2.1786,-2.1751,-2.1734,-2.1697,-2.167,-2.1635,-2.1591,-2.1561,-2.1513,-2.1471,-2.145,-2.1446,-2.1396,-2.1404,-2.1405,-2.1401,-2.1379,-2.1378,-2.1377,-2.139,-2.139,-2.139,0,0,-2.1933,-2.1898,-2.1867,-2.1834,-2.1784,-2.1754,-2.1747,-2.1691,-2.1671,-2.1626,-2.1599,-2.1567,-2.1501,-2.1468,-2.1443,-2.1423,-2.1404,-2.1412,-2.1415,-2.1394,-2.1393,-2.1392,-2.1385,-2.1384,-2.1409,-2.1409,-2.1409,0,-2.1944,-2.1889,-2.1853,-2.1817,-2.1791,-2.1759,-2.1727,-2.1697,-2.1637,-2.1619,-2.1616,-2.1533,-2.1498,-2.1448,-2.1444,-2.1424,-2.1415,-2.1417,-2.1396,-2.1395,-2.1393,-2.1386,-2.1384,-2.141,-2.141,-2.141,-2.141,0,-2.1906,-2.1869,-2.1849,-2.1793,-2.1764,-2.1731,-2.169,-2.1665,-2.1645,-2.1615,-2.1571,-2.1529,-2.1481,-2.1468,-2.1447,-2.1416,-2.1415,-2.1404,-2.1398,-2.1394,-2.1387,-2.1384,-2.1412,-2.1412,-2.1411,-2.1411,0,0,-2.1911,-2.1837,-2.183,-2.1805,-2.1749,-2.172,-2.1686,-2.164,-2.162,-2.1581,-2.1552,-2.1497,-2.1488,-2.146,-2.1435,-2.1416,-2.1405,-2.1408,-2.1406,-2.1409,-2.1369,-2.1377,-2.1374,-2.1393,-2.1392,-2.1391,-2.1373,0,-2.1892,-2.183,-2.1797,-2.1748,-2.1714,-2.1685,-2.1655,-2.1618,-2.1591,-2.1558,-2.1528,-2.149,-2.148,-2.1463,-2.1444,-2.141,-2.1396,-2.1411,-2.1365,-2.1364,-2.1377,-2.1371,-2.1378,-2.1363,-2.137,-2.137,-2.1369,0,-2.1861,-2.1823,-2.1772,-2.1722,-2.1706,-2.168,-2.1637,-2.1606,-2.1564,-2.1545,-2.1515,-2.1491,-2.1455,-2.1453,-2.1404,-2.1415,-2.1395,-2.1376,-2.1374,-2.1368,-2.1366,-2.1364,-2.1357,-2.1355,-2.1364,-2.1365,-2.1365,0,-2.1871,-2.1807,-2.1768,-2.1747,-2.1687,-2.167,-2.1645,-2.1603,-2.1579,-2.1541,-2.1525,-2.1484,-2.1461,-2.143,-2.1396,-2.1397,-2.1351,-2.1345,-2.1334,-2.1335,-2.1324,-2.1325,-2.1314,-2.1313,-2.1313,-2.1313,-2.1313,0,-2.1853,-2.1822,-2.1771,-2.1747,-2.1713,-2.1677,-2.1644,-2.1616,-2.158,-2.1551,-2.1523,-2.1496,-2.1454,-2.1422,-2.1396,-2.1359,-2.1349,-2.1334,-2.1327,-2.1336,-2.1338,-2.1321,-2.1321,-2.1312,-2.1312,-2.1312,-2.1312,0,-2.1856,-2.1821,-2.1777,-2.1725,-2.1711,-2.1688,-2.1644,-2.162,-2.1592,-2.1556,-2.1545,-2.1501,-2.1463,-2.1427,-2.1375,-2.1358,-2.1321,-2.1313,-2.1335,-2.1331,-2.1323,-2.1324,-2.13,-2.1295,-2.1298,-2.1298,-2.1298,0,-2.1847,-2.1823,-2.1769,-2.1748,-2.1723,-2.1689,-2.1664,-2.1628,-2.1604,-2.1556,-2.1538,-2.1498,-2.1464,-2.1404,-2.1368,-2.1329,-2.1319,-2.1313,-2.1313,-2.1323,-2.1319,-2.1321,-2.1318,-2.1313,-2.1314,-2.1314,-2.1314,0,-2.1834,-2.1818,-2.1783,-2.1743,-2.1715,-2.1681,-2.1647,-2.1631,-2.1589,-2.1563,-2.1524,-2.1497,-2.1446,-2.1406,-2.1364,-2.1338,-2.1319,-2.1315,-2.131,-2.1318,-2.1333,-2.1325,-2.1337,-2.1315,-2.1315,-2.1315,-2.1315,-2.1315,-2.183,-2.1809,-2.1768,-2.1731,-2.1701,-2.1671,-2.1646,-2.1616,-2.1583,-2.1538,-2.1519,-2.148,-2.1441,-2.1382,-2.1357,-2.1326,-2.1322,-2.1315,-2.1313,-2.1312,-2.1314,-2.1339,-2.1318,-2.1318,-2.1318,-2.1318,-2.1318,0,-2.1816,-2.1789,-2.1756,-2.1709,-2.168,-2.1666,-2.1628,-2.1605,-2.1571,-2.1536,-2.1504,-2.1459,-2.1422,-2.1384,-2.1345,-2.1327,-2.1318,-2.1318,-2.1319,-2.1314,-2.132,-2.1328,-2.1327,-2.1327,-2.1327,-2.1327,-2.1327,-2.1327,-2.1805,-2.1768,-2.1748,-2.1696,-2.1669,-2.1631,-2.161,-2.1582,-2.1555,-2.1507,-2.1476,-2.1452,-2.1416,-2.1374,-2.134,-2.133,-2.1317,-2.1319,-2.1307,-2.1313,-2.1313,-2.1312,-2.132,-2.1317,-2.1317,-2.1303,-2.1303,-2.1303]},{"header":{"parameterUnit":"m.s-1","parameterCategory":1,"la1":30.2991,"la2":30.254,"lo1":-89.0895,"lo2":-89.0444,"dy":0.0017,"dx":0.0017,"nx":28,"ny":28,"refTime":"2024-08-26T03:00:00:Z","depth":0,"parameterNumber":3,"parameterNumberName":"V-component_of_WINDS"},"data":[0,0,0,0,0,0,0,0,0,0,0,0,0,0,0,0,0,0,0,0,0,0,0,0,0,0,0,0,0,0,0,0,0,0,0,0,0,0,0,0,0,0,0,0,0,0,0,0,0,0,0,0,0,0,0,0,0,0,2.2022,2.2022,0,2.2049,2.2049,2.205,2.2053,2.2053,2.2053,2.2053,2.2077,2.2078,2.2079,0,0,0,0,0,0,0,0,0,0,0,0,0,2.1968,2.1969,2.2022,2.2022,2.2022,2.2049,2.2049,2.205,2.2053,2.2053,2.2053,2.2053,2.2077,2.2078,2.2079,0,0,0,0,0,0,0,0,0,0,0,0,0,2.1993,2.197,2.2021,2.2027,2.2028,2.2049,2.2049,2.205,2.2054,2.2053,2.2053,2.2052,2.2077,2.2078,2.2079,2.2095,0,0,2.2083,2.2084,0,0,0,0,0,0,0,0,2.1992,2.1995,2.2026,2.2027,2.2028,2.2048,2.204,2.2065,2.2054,2.2044,2.2053,2.2052,2.2068,2.207,2.2075,2.2096,2.2097,2.2084,2.2084,2.2085,2.2085,0,0,0,0,0,0,0,2.199,2.1994,2.2032,2.2027,2.2028,2.2027,2.2031,2.2044,2.2057,2.2045,2.2045,2.2048,2.2068,2.2074,2.2076,2.2097,2.2084,2.2085,2.2086,2.2086,2.2131,2.2131,0,0,0,0,0,0,2.1988,2.1992,2.2031,2.2033,2.2009,2.2029,2.2032,2.2042,2.2057,2.2059,2.2049,2.2048,2.2072,2.2074,2.2077,2.2095,2.2085,2.2086,2.2087,2.213,2.2131,2.2131,0,0,0,0,0,0,2.1987,2.1991,2.203,2.2013,2.2018,2.203,2.204,2.2042,2.2049,2.206,2.2062,2.2053,2.2072,2.2075,2.209,2.2096,2.2087,2.2088,2.213,2.213,2.2131,2.2133,0,0,0,0,0,0,2.1985,2.1991,2.1998,2.2013,2.2019,2.2044,2.2041,2.2043,2.2051,2.2051,2.2065,2.2067,2.2072,2.2088,2.2092,2.2098,2.2089,2.2129,2.213,2.2131,2.2132,2.2133,2.2134,0,0,0,0,0,2.1983,2.1997,2.1998,2.2003,2.2028,2.2045,2.2048,2.2055,2.2052,2.2058,2.2065,2.2066,2.2095,2.209,2.2094,2.21,2.2129,2.213,2.2131,2.2132,2.2133,2.2134,0,0,0,0,0,0,2.1981,2.1999,2.2001,2.202,2.2031,2.2045,2.2054,2.2056,2.2067,2.2067,2.2073,2.2076,2.2091,2.2097,2.2091,2.2115,2.2112,2.2113,2.2111,2.2112,2.2113,2.2111,2.209,0,0,0,0,0,2.1983,2.1996,2.2011,2.2026,2.2031,2.2042,2.2049,2.2053,2.2065,2.2069,2.2078,2.2087,2.2099,2.2106,2.2117,2.2133,2.2135,2.2139,2.214,2.2141,2.2142,2.215,2.2152,2.2134,2.2134,2.2134,0,0,2.1986,2.1998,2.2006,2.2026,2.2035,2.2047,2.2046,2.2059,2.2068,2.2071,2.2086,2.2092,2.2104,2.2119,2.2126,2.2125,2.2148,2.2142,2.2143,2.2144,2.2151,2.2153,2.2154,2.2135,2.2135,2.2135,0,0,2.1999,2.201,2.2023,2.2032,2.2046,2.2053,2.2056,2.2071,2.2075,2.2091,2.2093,2.2103,2.2122,2.213,2.2137,2.2152,2.2152,2.2155,2.216,2.2167,2.2169,2.217,2.2174,2.2176,2.2156,2.2156,2.2156,0,2.2001,2.2021,2.2029,2.2043,2.2051,2.2055,2.2068,2.2076,2.2093,2.2097,2.2096,2.212,2.2128,2.2145,2.2148,2.2154,2.2156,2.2153,2.2168,2.2169,2.2171,2.2175,2.2177,2.2156,2.2156,2.2156,2.2156,0,2.2023,2.2036,2.2045,2.2062,2.2071,2.2084,2.2093,2.2101,2.2104,2.2111,2.2125,2.2135,2.2148,2.2152,2.2155,2.2169,2.2168,2.2167,2.2163,2.2172,2.2176,2.2178,2.2156,2.2156,2.2156,2.2156,0,0,2.2035,2.2056,2.2059,2.2066,2.2082,2.2092,2.2104,2.2117,2.2124,2.2135,2.2144,2.2161,2.216,2.2167,2.2171,2.2178,2.2188,2.2176,2.2176,2.2177,2.2202,2.2202,2.2204,2.2188,2.2189,2.2189,2.2201,0,2.2048,2.2072,2.208,2.2099,2.2111,2.2115,2.2125,2.2135,2.2141,2.2151,2.2157,2.2169,2.2167,2.2172,2.2178,2.2185,2.2193,2.2184,2.2196,2.2196,2.2193,2.2206,2.2207,2.2217,2.2203,2.2203,2.2203,0,2.2068,2.208,2.2101,2.2114,2.2119,2.2129,2.2141,2.2151,2.2162,2.2166,2.2174,2.2177,2.2189,2.2185,2.22,2.2194,2.22,2.2203,2.2204,2.2205,2.22,2.2207,2.2221,2.2222,2.2206,2.2206,2.2205,0,2.2073,2.2095,2.211,2.2116,2.2132,2.2138,2.2145,2.2156,2.2163,2.2173,2.2178,2.2189,2.2195,2.2203,2.2209,2.2206,2.2223,2.222,2.2226,2.2226,2.2229,2.2229,2.2244,2.2234,2.2234,2.2234,2.2234,0,2.2087,2.21,2.2112,2.2121,2.2135,2.2142,2.2155,2.2162,2.2171,2.218,2.2184,2.2193,2.22,2.2209,2.2214,2.2225,2.2228,2.223,2.2231,2.223,2.2229,2.2233,2.2232,2.2234,2.2234,2.2234,2.2234,0,2.2095,2.2105,2.2121,2.2135,2.2139,2.2148,2.2159,2.2168,2.2174,2.2186,2.2189,2.2198,2.2209,2.2216,2.2229,2.2232,2.2245,2.2245,2.2241,2.2241,2.2247,2.2246,2.2264,2.2266,2.2255,2.2255,2.2255,0,2.2104,2.2113,2.2128,2.2136,2.2143,2.2154,2.2162,2.2169,2.2177,2.219,2.2196,2.2207,2.2217,2.2234,2.2241,2.2251,2.2252,2.2257,2.2253,2.2251,2.2251,2.225,2.225,2.2258,2.2258,2.2258,2.2258,0,2.2117,2.2121,2.2132,2.2145,2.2154,2.2164,2.2174,2.218,2.2189,2.2197,2.2208,2.2216,2.223,2.2241,2.2251,2.2257,2.2259,2.2259,2.2261,2.2259,2.2256,2.2257,2.2242,2.2259,2.2259,2.2259,2.2259,2.2259,2.2124,2.2133,2.2145,2.2157,2.2166,2.2175,2.2183,2.2191,2.2201,2.2214,2.2217,2.2229,2.2239,2.2253,2.2259,2.2268,2.2267,2.2269,2.227,2.227,2.227,2.2255,2.227,2.227,2.227,2.227,2.227,0,2.2137,2.2145,2.2156,2.2171,2.218,2.2182,2.2193,2.22,2.2211,2.222,2.223,2.2243,2.2253,2.2261,2.2271,2.2277,2.2277,2.2279,2.2278,2.2279,2.2271,2.2268,2.2278,2.2278,2.2278,2.2278,2.2278,2.2278,2.2145,2.2159,2.2164,2.2182,2.2189,2.2202,2.2208,2.2216,2.2223,2.2238,2.2247,2.2252,2.2261,2.2272,2.2281,2.2283,2.2286,2.2287,2.2289,2.2281,2.228,2.2279,2.2276,2.2288,2.2288,2.2297,2.2297,2.2297]}]]